Weather History for Devils Lake, ND

Change the Weather History Date:

Tuesday, January 8, 2013

  Actual Average Record
Temperature  
Mean Temperature 20 °F -  
Max Temperature 35 °F 11 °F 44 °F (2002)
Min Temperature 5 °F -6 °F -28 °F (1966)
Degree Days  
Heating Degree Days 45    
Moisture  
Dew Point 19 °F    
Average Humidity 79    
Maximum Humidity 93    
Minimum Humidity 64    
Precipitation  
Precipitation 0.00 in - - ()
Sea Level Pressure  
Sea Level Pressure 29.64 in    
Wind  
Wind Speed 13 mph (SW)    
Max Wind Speed 32 mph    
Max Gust Speed 41 mph    
Visibility 9 miles    
Events      
Averages and records for this station are not official NWS values.
T = Trace of Precipitation, MM = Missing Value Source: NWS Daily Summary

Daily Weather History Graph

Daily Weather History Graph

Search for Another Location

Airport:

Trip Planner

Search our weather history database for the weather conditions in past years. The results will help you decide how hot, cold, wet, or windy it might be!

Date:

Astronomy

Jan. 08, 2013 Rise Set
Actual Time 8:24 AM CST 5:00 PM CST
Civil Twilight 7:48 AM CST 5:36 PM CST
Nautical Twilight 7:09 AM CST 6:15 PM CST
Astronomical Twilight 6:32 AM CST 6:53 PM CST
Moon 4:57 AM CST (1/8) 2:05 PM CST (1/8)
Length of Visible Light 9h 47m
Length of Day
8h 36m
Waning Crescent, 13% of the Moon is Illuminated
Jan 8
Waning Crescent
Jan 11
New
Jan 18
First Quarter
Jan 26
Full
Feb 3
Last Quarter

Hourly Weather History & Observations

Time (CST) Temp. Windchill Dew Point Humidity Pressure Visibility Wind Dir Wind Speed Gust Speed Precip Events Conditions
12:15 AM 12.2 °F 1.7 °F 8.6 °F 85% 29.77 in 10.0 mi SSE 6.9 mph - N/A   Clear
12:35 AM 10.4 °F -0.4 °F 8.6 °F 92% 29.76 in 10.0 mi SSE 6.9 mph - N/A   Clear
12:55 AM 8.6 °F -1.3 °F 3.2 °F 79% 29.76 in 10.0 mi SE 5.8 mph - N/A   Clear
1:15 AM 6.8 °F -6.9 °F 1.4 °F 79% 29.75 in 10.0 mi SSE 9.2 mph - N/A   Clear
1:35 AM 8.6 °F -2.6 °F 5.0 °F 85% 29.74 in 10.0 mi SSE 6.9 mph - N/A   Clear
1:55 AM 8.6 °F -1.3 °F 6.8 °F 92% 29.75 in 10.0 mi SSE 5.8 mph - N/A   Clear
2:15 AM 6.8 °F - 3.2 °F 85% 29.74 in 10.0 mi Calm Calm - N/A   Clear
2:35 AM 5.0 °F - 1.4 °F 85% 29.74 in 10.0 mi Calm Calm - N/A   Clear
2:55 AM 6.8 °F -0.1 °F 3.2 °F 85% 29.73 in 10.0 mi ESE 3.5 mph - N/A   Clear
3:15 AM 10.4 °F 2.2 °F 5.0 °F 79% 29.72 in 10.0 mi South 4.6 mph - N/A   Clear
3:35 AM 12.2 °F 4.3 °F 10.4 °F 92% 29.72 in 10.0 mi SE 4.6 mph - N/A   Clear
3:55 AM 10.4 °F -0.4 °F 6.8 °F 85% 29.71 in 10.0 mi SE 6.9 mph - N/A   Clear
4:15 AM 10.4 °F -2.4 °F 6.8 °F 85% 29.70 in 10.0 mi SSE 9.2 mph - N/A   Clear
4:35 AM 10.4 °F -4.1 °F 6.8 °F 85% 29.70 in 10.0 mi SSE 11.5 mph - N/A   Clear
4:55 AM 10.4 °F -2.4 °F 6.8 °F 85% 29.69 in 10.0 mi SE 9.2 mph - N/A   Clear
5:15 AM 10.4 °F -0.4 °F 8.6 °F 92% 29.69 in 10.0 mi SSE 6.9 mph - N/A   Clear
5:35 AM 12.2 °F -0.2 °F 10.4 °F 92% 29.67 in 10.0 mi SSE 9.2 mph - N/A   Clear
5:55 AM 17.6 °F 5.0 °F 14.0 °F 86% 29.65 in 10.0 mi SSE 11.5 mph - N/A   Clear
6:15 AM 19.4 °F 8.6 °F 17.6 °F 93% 29.64 in 10.0 mi SE 9.2 mph - N/A   Scattered Clouds
6:35 AM 21.2 °F 8.3 °F 19.4 °F 93% 29.63 in 10.0 mi SSE 13.8 mph - N/A   Overcast
6:55 AM 23.0 °F 13.9 °F 19.4 °F 86% 29.63 in 10.0 mi SSE 8.1 mph - N/A   Overcast
7:15 AM 23.0 °F 12.4 °F 19.4 °F 86% 29.62 in 10.0 mi SE 10.4 mph - N/A   Overcast
7:35 AM 26.6 °F 15.2 °F 19.4 °F 74% 29.61 in 10.0 mi South 13.8 mph - N/A   Overcast
7:55 AM 26.6 °F 15.2 °F 19.4 °F 74% 29.61 in 10.0 mi South 13.8 mph - N/A   Mostly Cloudy
8:15 AM 26.6 °F 14.7 °F 19.4 °F 74% 29.60 in 10.0 mi South 15.0 mph - N/A   Overcast
8:35 AM 28.4 °F 17.0 °F 21.2 °F 74% 29.61 in 10.0 mi South 15.0 mph - N/A   Overcast
8:55 AM 28.4 °F 16.2 °F 21.2 °F 74% 29.61 in 10.0 mi South 17.3 mph 23.0 mph N/A   Overcast
9:15 AM 30.2 °F 19.3 °F 24.8 °F 80% 29.60 in 3.0 mi SSW 15.0 mph 24.2 mph N/A   Overcast
9:35 AM 30.2 °F 18.1 °F 24.8 °F 80% 29.60 in 10.0 mi South 18.4 mph 21.9 mph N/A   Overcast
9:55 AM 30.2 °F 19.8 °F 21.2 °F 69% 29.58 in 10.0 mi South 13.8 mph - N/A   Overcast
10:15 AM 32.0 °F 20.8 °F 21.2 °F 64% 29.58 in 10.0 mi South 17.3 mph 23.0 mph N/A   Overcast
10:35 AM 32.0 °F 20.5 °F 21.2 °F 64% 29.58 in 10.0 mi SSW 18.4 mph - N/A   Overcast
10:55 AM 30.2 °F 17.1 °F 24.8 °F 80% 29.57 in 1.2 mi South 21.9 mph - N/A   Overcast
11:15 AM 30.2 °F 18.5 °F 24.8 °F 80% 29.57 in 2.5 mi SSW 17.3 mph 23.0 mph N/A   Overcast
11:35 AM 30.2 °F 18.1 °F 26.6 °F 86% 29.56 in 1.2 mi SSW 18.4 mph 25.3 mph N/A   Overcast
11:55 AM 30.2 °F 19.3 °F 26.6 °F 86% 29.56 in 1.0 mi SSW 15.0 mph - N/A   Overcast
12:15 PM 30.2 °F 18.9 °F 26.6 °F 86% 29.55 in 5.0 mi SSW 16.1 mph 21.9 mph N/A   Overcast
12:35 PM 30.2 °F 19.3 °F 26.6 °F 86% 29.55 in 10.0 mi SW 15.0 mph - N/A   Overcast
12:55 PM 32.0 °F 21.2 °F 28.4 °F 87% 29.55 in 10.0 mi SW 16.1 mph - N/A   Overcast
1:15 PM 33.8 °F 23.5 °F 28.4 °F 81% 29.54 in 10.0 mi WSW 16.1 mph - N/A   Overcast
1:35 PM 33.8 °F 22.5 °F 28.4 °F 81% 29.54 in 10.0 mi West 19.6 mph - N/A   Overcast
1:55 PM 35.6 °F 25.5 °F 28.4 °F 75% 29.54 in 10.0 mi West 17.3 mph - N/A   Overcast
2:15 PM 35.6 °F 24.8 °F 28.4 °F 75% 29.55 in 10.0 mi West 19.6 mph - N/A   Mostly Cloudy
2:35 PM 33.8 °F 22.2 °F 26.6 °F 75% 29.56 in 10.0 mi West 20.7 mph - N/A   Mostly Cloudy
2:55 PM 33.8 °F 23.2 °F 26.6 °F 75% 29.56 in 10.0 mi West 17.3 mph - N/A   Partly Cloudy
3:15 PM 33.8 °F 23.2 °F 26.6 °F 75% 29.56 in 10.0 mi West 17.3 mph - N/A   Clear
3:35 PM 33.8 °F 23.5 °F 26.6 °F 75% 29.57 in 10.0 mi West 16.1 mph - N/A   Clear
3:55 PM 33.8 °F 23.2 °F 26.6 °F 75% 29.58 in 10.0 mi West 17.3 mph - N/A   Clear
4:15 PM 33.8 °F 22.2 °F 26.6 °F 75% 29.59 in 10.0 mi West 20.7 mph - N/A   Clear
4:35 PM 33.8 °F 21.0 °F 26.6 °F 75% 29.59 in 10.0 mi West 25.3 mph 32.2 mph N/A   Clear
4:55 PM 33.8 °F 21.3 °F 24.8 °F 70% 29.60 in 10.0 mi West 24.2 mph - N/A   Clear
5:15 PM 32.0 °F 19.5 °F 24.8 °F 75% 29.60 in 10.0 mi West 21.9 mph - N/A   Clear
5:35 PM 32.0 °F 18.4 °F 24.8 °F 75% 29.61 in 10.0 mi West 26.5 mph 29.9 mph N/A   Clear
5:55 PM 30.2 °F 17.1 °F 24.8 °F 80% 29.62 in 10.0 mi West 21.9 mph - N/A   Clear
6:15 PM 30.2 °F 17.8 °F 23.0 °F 75% 29.63 in 10.0 mi West 19.6 mph - N/A   Clear
6:35 PM 28.4 °F 15.8 °F 23.0 °F 80% 29.64 in 10.0 mi West 18.4 mph - N/A   Clear
6:55 PM 30.2 °F 16.8 °F 23.0 °F 75% 29.63 in 10.0 mi West 23.0 mph - N/A   Clear
7:15 PM 30.2 °F 17.4 °F 23.0 °F 75% 29.64 in 10.0 mi West 20.7 mph 25.3 mph N/A   Scattered Clouds
7:35 PM 30.2 °F 17.8 °F 21.2 °F 69% 29.65 in 10.0 mi West 19.6 mph - N/A   Partly Cloudy
7:55 PM 30.2 °F 17.1 °F 21.2 °F 69% 29.65 in 10.0 mi West 21.9 mph - N/A   Clear
8:15 PM 30.2 °F 17.1 °F 21.2 °F 69% 29.65 in 10.0 mi West 21.9 mph - N/A   Clear
8:35 PM 30.2 °F 16.2 °F 21.2 °F 69% 29.65 in 10.0 mi West 25.3 mph 29.9 mph N/A   Scattered Clouds
8:55 PM 30.2 °F 16.8 °F 21.2 °F 69% 29.64 in 10.0 mi West 23.0 mph - N/A   Mostly Cloudy
9:15 PM 32.0 °F 18.1 °F 24.8 °F 75% 29.64 in 10.0 mi West 27.6 mph 32.2 mph N/A   Overcast
9:35 PM 30.2 °F 17.8 °F 24.8 °F 80% 29.65 in 10.0 mi West 19.6 mph 25.3 mph N/A   Overcast
9:55 PM 30.2 °F 14.7 °F 24.8 °F 80% 29.65 in 3.0 mi WNW 32.2 mph 38.0 mph N/A   Overcast
10:15 PM 30.2 °F 15.4 °F 24.8 °F 80% 29.66 in 6.0 mi West 28.8 mph - N/A   Overcast
10:35 PM 28.4 °F 12.3 °F 23.0 °F 80% 29.68 in 3.0 mi West 32.2 mph 39.1 mph N/A   Overcast
10:55 PM 28.4 °F 12.3 °F 21.2 °F 74% 29.69 in 4.0 mi West 32.2 mph 41.4 mph N/A   Overcast
11:15 PM 26.6 °F 9.8 °F 21.2 °F 80% 29.69 in 3.0 mi West 32.2 mph 39.1 mph N/A   Overcast
11:35 PM 26.6 °F 10.6 °F 21.2 °F 80% 29.71 in 5.0 mi WNW 28.8 mph 40.3 mph N/A   Overcast
11:55 PM 26.6 °F 10.6 °F 21.2 °F 80% 29.73 in 10.0 mi WNW 28.8 mph 34.5 mph N/A   Overcast